IXPE

Last updated on Thu Oct 30 2025 00:03:36 GMT+0000 (Coordinated Universal Time)

1 49954U 21121A 25302.50003471 .00014183 00000+0 85480-3 0 9994 2 49954 0.2309 258.7878 0008017 197.5641 294.0826 15.07215129 5000
UTC large
Height (km)
Speed (km/s)
/
Latitude / Longitude
Inclination (degrees)
Orbital Period (minutes)
Azimuth
Elevation
Range (km)
Doppler Factor

Next 0 passes for location: London (51.5072 / 0.1276)

Sorry there are no passes over London.